Terminal Aerodrome Forecast
Issued by NWS

Home | Current Version | Previous Version | Text Only | Print | Product List | Glossary On
Versions: 1 2 3 4 5 6 7 8 9 10 11 12 13 14 15 16 17 18 19 20 21 22 23 24 25 26 27 28 29 30 31
000
FTUS44 KLIX 161700
TAFHDC
TAF
KHDC 161733Z 1618/1718 00000KT P6SM SKC
     FM171000 07004KT P6SM SCT090
     FM171100 06004KT P6SM SCT250
     FM171200 06005KT P6SM BKN025
     FM171500 09006KT P6SM BKN025=

USA.gov is the U.S. government's official web portal to all federal, state and local government web resources and services.